Weather History for KBZN - June, 2014

Change the Weather History Date:

Monday, June 23, 2014

  Actual Average Record
Temperature  
Mean Temperature 59 °F 64 °F  
Max Temperature 76 °F 80 °F 96 °F (1988)
Min Temperature 41 °F 47 °F 31 °F (2003)
Degree Days  
Heating Degree Days 6    
Month to date heating degree days 195  
Since 1 June heating degree days 195  
Since 1 July heating degree days 8256  
Cooling Degree Days 0    
Month to date cooling degree days 0  
Year to date cooling degree days 0  
Since 1 June cooling degree days 0  
Growing Degree Days 8 (Base 50)    
Moisture  
Dew Point 45 °F    
Average Humidity 62    
Maximum Humidity 93    
Minimum Humidity 31    
Precipitation  
Precipitation 0.00 in 0.07 in 0.53 in (1948)
Month to date precipitation 2.78 1.99  
Year to date precipitation 7.70 7.89  
Snow  
Snow 0.00 in 0.00 in T in (1989)
Month to date snowfall 0.0 0.3  
Since 1 June snowfall 0.0 0.3  
Since 1 July snowfall 32.3 40.2  
Snow Depth 0.00 in    
Sea Level Pressure  
Sea Level Pressure 30.08 in    
Wind  
Wind Speed 4 mph (SE)    
Max Wind Speed 10 mph    
Max Gust Speed 13 mph    
Visibility 10 miles    
Events      
T = Trace of Precipitation, MM = Missing Value Source: NWS Daily Summary

Daily Weather History Graph

Daily Weather History Graph

Search for Another Location

Airport or City:

Trip Planner

Search our weather history database for the weather conditions in past years. The results will help you decide how hot, cold, wet, or windy it might be!

Date:

Astronomy

Jun. 23, 2014 Rise Set
Actual Time 5:35 AM MDT 9:18 PM MDT
Civil Twilight 4:56 AM MDT 9:56 PM MDT
Nautical Twilight 4:05 AM MDT 10:48 PM MDT
Astronomical Twilight 2:54 AM MDT 11:59 PM MDT
Moon 3:12 AM MDT (6/23) 5:55 PM MDT (6/23)
Length of Visible Light 17h 00m
Length of Day
15h 43m
Waning Crescent, 12% of the Moon is Illuminated
Jun 23
Waning Crescent
Jun 27
New
Jul 5
First Quarter
Jul 12
Full
Jul 18
Last Quarter

Hourly Weather History & Observations

Time (MDT) Temp. Windchill Dew Point Humidity Pressure Visibility Wind Dir Wind Speed Gust Speed Precip Events Conditions
12:56 AM 46.9 °F - 44.1 °F 90% 30.14 in 10.0 mi East 6.9 mph - N/A   Partly Cloudy
1:56 AM 46.9 °F - 44.1 °F 90% 30.14 in 10.0 mi Calm Calm - N/A   Clear
2:56 AM 45.0 °F 42.6 °F 42.1 °F 90% 30.14 in 10.0 mi South 4.6 mph - N/A   Clear
3:56 AM 42.1 °F 38.4 °F 39.9 °F 92% 30.14 in 10.0 mi SSE 5.8 mph - N/A   Clear
4:56 AM 44.1 °F 40.1 °F 39.9 °F 85% 30.13 in 10.0 mi South 6.9 mph - N/A   Clear
5:56 AM 41.0 °F 37.1 °F 37.9 °F 89% 30.13 in 10.0 mi ESE 5.8 mph - N/A   Clear
6:56 AM 46.0 °F 43.9 °F 42.1 °F 86% 30.13 in 10.0 mi SSE 4.6 mph - N/A   Clear
7:56 AM 52.0 °F - 44.1 °F 74% 30.13 in 10.0 mi ESE 3.5 mph - N/A   Clear
8:56 AM 55.9 °F - 45.0 °F 67% 30.13 in 10.0 mi Calm Calm - N/A   Clear
9:56 AM 57.9 °F - 46.0 °F 65% 30.13 in 10.0 mi NW 3.5 mph - N/A   Clear
10:56 AM 61.0 °F - 46.9 °F 60% 30.11 in 10.0 mi WSW 3.5 mph - N/A   Clear
11:56 AM 64.9 °F - 48.0 °F 54% 30.09 in 10.0 mi Variable 3.5 mph - N/A   Clear
12:56 PM 68.0 °F - 48.9 °F 50% 30.09 in 10.0 mi NW 5.8 mph - N/A   Clear
1:56 PM 71.1 °F - 48.0 °F 44% 30.06 in 10.0 mi North 4.6 mph - N/A   Clear
2:56 PM 72.0 °F - 45.0 °F 38% 30.05 in 10.0 mi East 5.8 mph - N/A   Clear
3:56 PM 75.0 °F - 46.0 °F 36% 30.03 in 10.0 mi Calm Calm - N/A   Clear
4:56 PM 73.9 °F - 46.9 °F 38% 30.02 in 10.0 mi Variable 6.9 mph - N/A   Clear
5:56 PM 73.9 °F - 41.0 °F 30% 30.02 in 10.0 mi Calm Calm - N/A   Clear
6:56 PM 72.0 °F - 48.9 °F 44% 30.01 in 10.0 mi NNW 6.9 mph - N/A   Clear
7:56 PM 66.0 °F - 48.9 °F 54% 30.02 in 10.0 mi ESE 5.8 mph - N/A   Clear
8:56 PM 64.9 °F - 46.0 °F 50% 30.02 in 10.0 mi ESE 5.8 mph - N/A   Clear
9:56 PM 62.1 °F - 46.0 °F 56% 30.04 in 10.0 mi Calm Calm - N/A   Clear
10:56 PM 61.0 °F - 46.0 °F 58% 30.05 in 10.0 mi Calm Calm - N/A   Clear
11:56 PM 59.0 °F - 45.0 °F 60% 30.04 in 10.0 mi SE 3.5 mph - N/A   Clear